Location: Pandora
(40.9481°N, 83.9611°W)
Time: 13:01:45
(UTC-04:00)

Nauka - Pass Details

Date: 17 September 2021
Orbit: 417 x 423 km, 51.6° (Epoch: 24 October)

Event Time Altitude Azimuth Distance (km) Brightness Sun altitude
Rises 20:06:03 0° 212° (SSW) 2,345 ? -5.5°
Reaches altitude 10° 20:08:15 10° 202° (SSW) 1,487 ? -6.0°
Maximum altitude 20:11:17 33° 136° (SE) 721 ? -6.5°
Drops below altitude 10° 20:14:21 10° 70° (ENE) 1,499 ? -7.1°
Enters shadow 20:15:11 - 66° (ENE) 1,816 ? -7.3°
